Regional Weather Roundup
Issued by NWS

Home | Current Version | Previous Version | Text Only | Print | Product List | Glossary Off
Versions: 1 2 3 4 5 6 7 8 9 10 11 12 13 14 15 16 17 18 19 20 21 22 23 24 25 26 27 28 29 30 31 32 33 34 35 36 37 38 39 40 41 42 43 44 45 46 47 48 49 50

000
ASUS43 KIND 021459
RWRIN

WEATHER ROUNDUP FOR INDIANA
NATIONAL WEATHER SERVICE INDIANAPOLIS IN
1100 AM EDT SUN AUG 02 2015

NOTE: "FAIR" INDICATES FEW OR NO CLOUDS BELOW 12,000 FEET WITH NO
SIGNIFICANT WEATHER AND/OR OBSTRUCTIONS TO VISIBILITY.

* - STATION DOES NOT REPORT WEATHER SUCH AS PRECIPITATION OR FOG.

+ - STATION NOT QUALITY CONTROLLED BY THE NATIONAL WEATHER SERVICE.
    USE DATA WITH CAUTION...ESPECIALLY DEWPOINT AND RELATIVE
    HUMIDITY OBSERVATIONS.

INZ001>003-010>013-019-020-021600-
NORTHWEST INDIANA

CITY           SKY/WX    TMP DP  RH WIND       PRES   REMARKS
GARY /AIRPORT/ MOSUNNY   82  70  65 SW14G28   29.86F

$$

LMZ046-743>745-021600-
SOUTHERN LAKE MICHIGAN

STATION/POSITION TIME  TEMP    WIND        PRES    WAVE
                       AIR SEA DIR/SP/G            HT
                 (UTC) (F)     (DEG/KT/KT) (MB)    (FT)
BURNS HARBOR     1440   80     230/ 16/ 22 1011.5F
MICHIGAN CITY    1400   76     180/ 13/ 15   N/A
5NW MICH CITY    1400   75 74  210/ 12/ 14   N/A     2

$$

INZ004-005-014>016-021>024-021600-
NORTH CENTRAL INDIANA

CITY           SKY/WX    TMP DP  RH WIND       PRES   REMARKS
GOSHEN         MOSUNNY   79  68  69 SW14      29.90F
SOUTH BEND     NOT AVBL

$$

INZ006>009-017-018-025>027-021600-
NORTHEAST INDIANA

CITY           SKY/WX    TMP DP  RH WIND       PRES   REMARKS
ANGOLA *+      SUNNY     81  75  83 W8        29.90F
FORT WAYNE     NOT AVBL

$$

INZ028-029-035-036-043>045-051>053-021600-
WEST CENTRAL INDIANA

CITY           SKY/WX    TMP DP  RH WIND       PRES   REMARKS
GREENCASTLE +  SUNNY     77  61  57 CALM      29.98F
LAFAYETTE      NOT AVBL
TERRE HAUTE    SUNNY     81  65  58 SW8       29.97F

$$

INZ030>032-037>040-046>048-054>057-064-065-021600-
CENTRAL INDIANA

CITY           SKY/WX    TMP DP  RH WIND       PRES   REMARKS
COLUMBUS       SUNNY     79  57  47 SW7       29.99S
GREENWOOD *+   SUNNY     81  59  47 SW9       29.99F
INDIANAPOLIS   NOT AVBL
-EAGLE CREEK   SUNNY     79  63  57 VRB5      29.96F
SHELBYVILLE    SUNNY     80  64  58 SW9       29.98F

$$

INZ033-034-041-042-049-050-058-059-021600-
EAST CENTRAL INDIANA

CITY           SKY/WX    TMP DP  RH WIND       PRES   REMARKS
MUNCIE         SUNNY     78  63  59 W8G18     29.97S

$$

INZ060-061-067>069-081>083-085>088-021600-
SOUTHWEST INDIANA

CITY           SKY/WX    TMP DP  RH WIND       PRES   REMARKS
EVANSVILLE     NOT AVBL

$$

INZ062-063-066-070>080-084-089>092-021600-
SOUTH CENTRAL AND SOUTHEAST INDIANA

CITY           SKY/WX    TMP DP  RH WIND       PRES   REMARKS
BLOOMINGTON    SUNNY     81  63  54 SW6       29.99S
SEYMOUR +      SUNNY     81  64  57 S6        30.00S

$$




USA.gov is the U.S. government's official web portal to all federal, state and local government web resources and services.